Weather in Zuya

Russia / Republic of Crimea     45°03′15″N   34°18′54″E
temp.,
°C
wind,
m/s
gust,
m/s
humid.,
%
clouds,
%
prec.,
mm/h
press.,
hPa
HPBL,
m
24 october, sun
sun2400:00+12ne239197 0.1 1021180
03:00+11e2493100 0.1 1021100
06:00+10ne2389100 0.0 1021102
09:00+9nne5882100 0.2 1022537
12:00+6nne1387100 5.9 1025371
15:00+9n475198 6.3 10241466
18:00+7nw37525 0.0 1026168
21:00+5w236083 0.0 102866
25 october, mon
mon2500:00+4wnw116634 0.0 102913
03:00+3sw22745 0.0 103022
06:00+2sw118210 0.0 103113
09:00+4ne237913 0.0 1032319
12:00+7nne335945 0.0 10321077
15:00+9nne334741 0.0 10311357
18:00+6ene36575 0.0 1032166
21:00+4e35655 0.0 1033102
26 october, tue
tue2600:00+3e23650 0.0 103255
03:00+3ese33660 0.0 103247
06:00+2ese34690 0.0 103261
09:00+5ese36570 0.0 1031305
12:00+9e34380 0.0 1030886
15:00+11e44330 0.0 1027981
18:00+7e46500 0.0 1028177
21:00+5ese34640 0.0 102773
27 october, wed
wed2700:00+4sse22780 0.0 102724
03:00+4sse11860 0.0 102613
06:00+4se11840 0.0 102511
09:00+7sse12660 0.0 102594
12:00+11nw22480 0.0 1024647
15:00+13nw22420 0.0 1023905
18:00+9nne12500 0.0 102318
21:00+7se11620 0.0 102412
28 october, thu
thu2800:00+6wsw01660 0.0 102410
03:00+4ne11760 0.0 102510
06:00+3e22840 0.0 102512
09:00+6e23670 0.0 1025140
12:00+11ne33480 0.0 1025662
15:00+12ne33430 0.0 1024831
18:00+8ne355433 0.0 102579
21:00+6e22686 0.0 102621